Theta_e
307 300 297 297 299 301 303 304 304 306 305 306 307 306 306 306 309 310 310 313 317 315 316 317 318 318 320 324 330 333 335 335 335 336 336 337 337 337 337 337 338 339 339 343 345 347 347 348 348 349 350 351 351 352 351 351 352 354 353 353 352 355 356 355 353 353 353 351 352 352 351 349 351 354 355 354 355 354 354 358 360 363 363 367 368 368
305 299 298 301 302 302 303 305 305 304 305 305 305 306 306 307 306 311 310 312 316 312 312 316 316 317 319 323 329 333 333 332 333 334 336 336 337 337 338 337 338 340 342 343 344 346 347 347 348 349 349 351 349 351 351 350 351 353 353 354 353 354 356 355 355 354 354 355 353 352 352 350 351 353 352 352 354 352 354 360 362 363 364 367 368 368
298 297 300 303 303 303 302 303 304 303 302 304 304 304 304 306 308 310 310 311 313 313 311 314 313 314 318 321 328 331 332 334 335 335 336 337 337 337 338 339 339 340 340 342 343 345 346 347 348 348 349 350 350 351 351 351 351 352 352 354 356 355 355 355 356 357 355 357 357 355 354 353 351 355 356 354 355 356 354 357 361 363 365 366 367 368
295 298 302 304 303 301 300 301 302 302 302 301 303 302 302 305 305 304 310 310 312 311 311 313 311 313 317 322 326 331 332 334 336 336 337 338 337 337 338 339 339 339 340 340 342 342 344 346 348 348 349 350 350 351 351 351 351 351 353 354 355 355 356 356 357 357 359 359 360 359 358 356 355 354 356 357 357 356 355 354 360 364 366 366 366 367
298 302 305 303 302 301 299 300 300 299 298 301 301 303 304 304 305 305 306 307 308 310 312 311 309 310 314 314 319 328 333 333 335 335 337 339 340 341 341 341 341 340 341 341 342 343 344 345 346 347 348 350 349 350 351 351 351 350 352 354 355 356 356 357 357 357 358 358 358 357 358 357 355 356 354 353 352 354 355 354 358 361 366 366 365 367
300 305 306 302 301 301 300 298 299 299 297 298 302 303 305 306 305 306 307 306 306 307 309 309 304 306 313 313 314 323 329 330 334 333 333 336 337 339 338 339 341 341 343 342 342 343 344 345 346 348 348 348 349 350 351 353 352 352 353 355 355 356 356 356 358 358 357 355 354 353 350 349 350 349 350 349 350 351 352 349 350 362 364 364 366 367
301 306 304 302 301 300 300 299 301 301 298 297 299 304 305 306 307 306 305 305 302 301 307 309 303 302 312 311 314 322 326 328 332 332 333 334 336 337 337 339 339 340 341 343 344 344 344 345 346 347 348 349 349 351 353 353 353 354 354 355 356 356 356 357 358 358 357 355 355 354 352 351 351 350 353 356 355 354 355 355 357 362 364 366 364 365
304 304 303 304 302 301 299 298 301 302 298 296 305 306 305 305 305 306 306 305 304 307 307 307 306 302 303 309 316 320 323 325 328 330 332 333 335 335 337 338 340 340 341 341 342 344 345 346 346 346 348 349 349 352 353 353 353 354 355 356 355 356 356 357 357 357 356 355 354 354 354 353 353 352 354 357 358 359 361 358 357 360 363 366 366 365
304 302 302 301 302 301 299 301 303 304 299 301 307 308 306 306 307 307 306 306 305 303 301 305 307 301 301 309 314 319 317 322 326 329 331 333 335 335 336 337 339 340 341 341 341 342 344 345 346 348 348 350 351 351 352 352 353 354 356 356 357 356 357 357 358 357 357 357 356 355 354 354 355 355 356 358 359 358 360 358 360 362 363 366 368 367
305 305 305 305 302 300 303 304 305 304 300 304 309 309 308 309 309 308 306 306 306 302 298 303 305 299 301 307 308 318 316 318 323 328 331 333 334 335 335 337 338 340 341 342 342 343 344 346 347 348 350 350 350 352 354 353 354 354 355 355 356 356 356 357 357 357 357 357 357 355 355 354 354 356 356 356 356 358 360 358 360 362 363 363 365 367
306 311 311 306 303 305 305 306 306 305 305 308 308 307 307 306 306 307 307 306 303 297 300 304 305 302 297 305 308 310 311 316 321 327 331 334 335 336 337 338 338 338 339 340 342 343 345 346 347 348 348 350 351 352 353 352 353 353 354 355 354 355 356 357 357 357 357 357 357 356 356 355 355 356 356 355 356 357 359 358 359 361 362 364 364 365
303 306 305 307 310 309 308 305 307 308 307 307 304 303 303 302 304 304 302 304 297 295 302 305 305 304 295 302 309 314 318 318 320 321 327 330 333 335 337 337 338 339 339 340 341 341 343 345 346 347 347 348 350 351 351 352 352 353 353 354 354 355 356 356 356 357 356 356 356 357 357 356 356 357 355 354 354 356 356 357 358 361 362 364 364 366
299 301 306 307 312 308 305 304 305 306 306 304 303 302 297 296 297 293 297 293 294 294 302 305 305 300 300 305 311 312 313 315 320 320 324 328 331 335 336 338 338 339 340 340 340 341 342 342 344 345 347 349 350 350 351 351 351 352 353 354 353 354 356 356 357 356 356 356 356 356 357 357 358 358 357 356 356 358 357 357 358 360 360 362 362 364
298 303 303 305 307 310 307 300 301 300 303 302 300 299 295 292 291 288 292 295 295 299 302 302 305 299 305 307 311 310 313 315 317 323 324 327 331 334 336 338 338 339 340 340 340 341 342 343 344 345 346 348 349 350 351 351 352 353 353 354 353 354 356 357 357 356 356 356 356 358 357 357 358 357 358 357 356 358 358 359 358 358 357 360 361 362
291 292 298 302 300 307 307 305 304 303 304 303 304 301 298 296 292 288 292 289 291 294 299 303 298 297 298 304 312 313 314 316 317 320 324 328 330 335 336 338 338 339 340 340 341 341 341 343 344 344 346 348 349 349 350 351 352 353 353 354 354 355 356 356 356 356 356 356 357 358 358 358 358 357 357 357 357 358 358 358 358 360 359 360 361 363
293 295 300 301 302 302 304 308 309 306 304 306 306 306 300 298 303 294 297 295 294 294 294 297 297 305 303 312 311 315 316 316 317 318 321 325 329 331 332 334 336 337 338 339 340 341 342 344 345 345 346 348 348 350 350 351 353 353 354 355 355 355 356 356 356 357 357 357 358 358 358 358 358 358 358 358 359 360 360 360 359 361 362 362 363 366
293 292 299 300 303 303 303 304 306 308 296 303 304 299 301 308 304 298 299 302 298 296 293 301 299 302 307 308 311 312 311 313 315 315 317 320 325 330 329 331 334 336 338 339 339 340 343 343 345 345 346 346 348 349 349 352 354 354 354 354 355 356 356 356 357 357 357 358 358 358 358 358 357 357 356 356 357 356 359 360 360 360 360 363 365 365
289 292 298 298 299 303 305 305 304 306 308 305 298 302 308 310 307 301 292 297 294 291 295 297 295 297 299 296 309 310 309 311 313 313 314 318 324 327 328 331 333 335 338 339 341 342 343 344 344 344 345 346 347 348 350 353 354 355 355 355 355 355 355 356 357 356 357 358 357 358 358 358 358 356 356 356 356 357 358 359 360 360 360 360 361 363
294 289 296 299 300 303 305 305 304 307 309 305 303 311 301 296 295 301 298 290 290 289 292 296 297 297 300 300 306 307 309 310 313 315 314 315 321 324 327 330 334 336 337 339 339 341 342 342 343 344 344 346 347 350 350 352 352 354 355 355 354 354 355 356 356 357 358 358 357 357 358 358 358 357 357 357 359 359 358 356 357 358 359 360 362 363
296 289 294 299 299 301 302 303 297 302 308 309 310 306 309 305 300 297 298 299 298 292 292 293 296 294 302 303 305 307 311 312 313 315 314 316 320 323 326 329 332 334 336 338 339 340 341 342 343 343 344 344 346 348 349 350 351 351 352 354 354 355 356 357 356 357 357 358 358 357 359 359 359 359 358 358 358 357 356 357 356 357 357 359 360 360
292 298 289 297 300 300 296 301 299 302 301 302 302 302 304 304 307 305 304 299 296 294 293 293 291 297 304 309 307 308 311 315 315 316 320 319 320 323 327 329 332 334 335 337 338 339 340 341 342 343 344 345 346 348 349 348 349 350 351 352 353 354 354 354 355 356 358 358 358 359 358 358 359 358 358 358 359 358 357 358 358 357 358 360 359 360
294 294 289 294 295 296 298 302 300 299 299 299 301 301 303 301 298 295 294 303 300 297 293 293 292 300 306 311 310 309 311 315 317 318 319 320 320 324 326 330 334 334 337 337 338 339 340 342 342 343 344 345 345 346 346 347 348 349 350 351 352 353 353 353 354 357 357 358 358 358 359 358 358 358 358 357 357 357 357 358 358 359 359 358 359 360
298 297 293 290 293 295 299 301 302 301 300 300 300 300 301 302 304 299 292 297 300 300 301 299 295 299 311 315 312 313 313 313 317 317 317 318 321 323 326 329 333 336 336 336 337 338 340 342 342 343 344 344 344 346 346 347 347 348 350 351 352 352 352 353 354 356 358 358 358 359 359 359 358 358 358 357 356 355 356 357 358 359 358 356 357 360
302 293 290 291 296 297 300 301 301 302 301 299 299 300 300 298 297 297 299 302 299 300 297 297 294 299 309 319 317 312 315 313 313 313 317 318 320 322 324 327 332 336 338 337 338 338 340 342 343 344 344 344 345 346 346 346 348 348 349 350 351 351 352 353 354 355 357 357 357 358 359 358 358 357 357 356 356 356 356 356 357 358 357 356 356 357
291 294 291 289 290 293 296 299 299 300 301 297 296 298 298 298 299 299 300 302 297 299 300 297 292 299 308 319 320 316 314 311 312 313 313 313 318 320 322 326 330 338 339 337 337 339 341 341 342 344 344 345 346 345 347 347 347 348 349 350 350 351 352 353 355 354 356 356 355 356 357 357 357 356 356 356 356 356 356 356 356 357 357 356 356 357
293 293 291 286 285 284 284 286 290 294 294 295 296 296 297 296 296 298 297 299 293 301 302 298 298 305 310 317 315 312 313 318 315 314 313 314 318 318 321 324 331 335 339 338 339 340 339 342 344 346 347 347 345 344 347 348 347 347 349 350 351 351 352 352 354 354 355 354 354 355 357 357 356 355 356 356 355 356 356 356 356 356 357 357 356 357
292 294 293 290 288 289 290 289 290 293 294 292 294 295 295 296 297 297 298 296 295 301 299 302 303 304 307 307 311 312 314 313 314 318 316 317 317 319 326 328 329 332 336 337 340 340 344 345 346 347 348 345 343 344 346 346 347 347 350 350 351 351 352 353 354 354 354 354 354 356 357 356 356 356 356 357 356 356 356 355 355 355 355 357 357 356
292 290 292 292 292 292 293 292 293 293 291 293 293 293 296 295 296 295 295 297 301 297 294 304 308 302 304 307 311 312 313 318 316 319 319 322 323 320 322 331 333 331 333 337 339 341 342 346 347 347 347 345 343 345 345 346 346 347 350 349 350 351 352 352 353 354 354 354 354 356 357 357 357 357 357 357 359 358 357 356 356 357 357 357 357 356
289 287 291 291 291 292 293 293 294 293 293 293 294 294 294 296 296 294 296 298 299 297 297 305 310 307 306 307 309 312 318 319 314 319 319 317 317 319 323 321 321 326 332 333 339 343 343 342 346 347 346 345 345 345 345 345 346 349 351 350 351 351 352 354 354 354 354 354 354 357 358 358 359 358 359 358 359 358 357 357 357 357 358 358 357 356
292 288 291 291 290 291 292 293 294 293 293 293 293 294 295 295 296 297 298 300 299 300 302 303 306 306 306 308 314 315 319 318 316 319 320 321 316 320 319 318 316 318 323 330 336 337 343 344 345 348 348 348 345 345 344 345 347 348 348 349 349 351 352 354 354 354 353 354 355 358 359 359 359 359 359 359 359 359 358 358 358 357 357 357 357 358
291 288 294 290 289 290 292 293 294 294 293 292 294 295 295 296 297 300 303 307 307 305 305 304 305 305 311 321 324 324 324 332 328 326 333 338 338 337 333 328 321 317 318 327 333 338 341 343 345 348 348 347 347 347 345 347 347 347 346 349 349 351 352 354 355 355 354 354 357 358 359 359 359 359 358 359 359 359 359 358 358 358 358 358 358 358
293 290 292 290 286 288 292 292 293 294 293 293 293 295 296 297 299 305 307 309 307 304 305 304 303 305 318 324 326 326 330 334 333 335 336 337 338 339 339 338 332 326 321 320 327 335 340 341 344 346 346 345 345 347 347 348 347 347 346 348 348 350 352 352 353 353 355 356 357 358 358 358 358 358 358 358 358 359 359 359 358 358 358 358 357 359
291 289 288 288 285 286 292 292 291 292 294 292 294 296 298 304 307 308 311 312 311 311 308 304 304 316 317 324 326 329 333 333 333 333 334 336 337 338 339 340 340 333 326 324 325 333 336 338 342 345 344 345 345 345 346 348 346 347 348 350 350 351 351 351 351 353 355 355 357 358 358 358 357 357 357 358 358 358 359 358 358 358 357 356 358 358
292 290 288 291 284 287 290 291 293 291 286 288 304 304 305 305 307 306 306 308 310 311 309 311 312 317 319 321 326 329 330 331 334 337 338 337 337 337 339 341 342 336 330 328 326 328 336 341 342 345 346 348 348 347 348 349 347 349 350 352 353 351 353 353 353 355 354 356 357 357 358 358 357 357 357 358 358 358 358 357 357 357 358 357 358 358
290 290 288 291 286 285 290 291 289 284 288 302 306 307 307 309 308 309 308 309 307 309 309 310 312 313 315 318 322 328 334 336 337 337 337 338 339 338 338 340 343 340 331 331 332 331 339 344 345 346 348 346 347 349 349 349 349 351 352 353 352 353 356 354 354 355 355 355 356 357 357 358 357 357 357 358 358 358 357 357 358 357 357 356 356 357
289 289 289 289 288 289 287 288 282 286 296 301 304 305 309 309 308 311 307 308 306 307 307 307 309 311 314 315 320 329 333 334 335 338 338 339 339 339 339 340 343 344 339 333 336 339 343 341 343 343 345 347 347 347 348 348 349 349 350 352 352 353 354 354 355 354 355 355 356 356 357 357 357 357 358 358 358 357 357 357 358 357 358 357 356 357
293 291 290 286 290 283 286 287 288 296 296 300 301 301 303 303 304 307 304 304 306 306 306 305 307 309 311 314 319 329 335 334 331 334 338 337 338 340 342 343 344 346 345 340 338 340 347 346 347 345 350 348 347 347 347 348 349 349 351 351 352 355 354 354 354 354 355 355 355 356 356 356 356 357 358 358 357 357 356 357 357 358 359 357 356 355
295 289 291 286 286 289 285 285 286 288 286 295 300 303 305 306 307 307 308 305 306 305 306 304 305 308 310 312 318 329 334 330 327 329 334 336 338 339 343 345 346 348 347 340 341 345 347 347 348 351 346 348 347 349 351 351 350 353 353 352 354 355 354 353 353 355 356 354 356 356 357 357 357 357 358 358 357 356 357 357 358 358 359 357 355 354
295 294 293 287 285 288 286 284 284 284 291 298 300 304 307 309 308 308 306 303 304 304 304 304 305 308 309 310 318 332 331 324 324 327 331 333 336 339 340 343 345 347 349 345 340 341 343 348 348 348 350 349 348 352 355 354 353 352 353 354 353 352 352 352 353 355 356 356 357 358 358 358 358 358 358 358 358 358 357 357 358 358 359 358 357 356
290 290 289 285 284 287 287 285 285 290 287 298 303 305 308 311 309 307 297 298 302 304 303 304 305 307 309 310 320 324 322 321 322 326 332 334 335 337 338 340 342 345 348 349 345 345 350 353 352 347 348 346 350 352 354 353 351 351 352 353 352 351 352 353 356 357 358 358 359 359 359 359 360 360 358 358 359 360 359 360 359 359 359 358 358 357
287 288 287 283 284 286 287 287 290 291 299 304 304 306 309 310 307 298 295 299 305 305 305 304 307 308 309 309 313 315 319 322 324 327 331 331 331 333 337 340 342 345 346 348 350 351 348 349 348 346 346 350 355 352 352 351 350 352 354 354 353 352 353 357 360 360 361 361 360 360 360 360 360 360 359 360 360 360 360 360 359 359 359 358 358 358
286 287 288 287 284 284 287 287 287 292 302 304 307 309 307 304 296 296 302 308 306 305 306 307 307 308 308 309 310 314 319 323 324 327 326 326 328 330 333 337 341 344 347 348 351 352 352 347 350 350 350 354 351 351 352 353 353 353 355 353 353 355 357 361 363 363 363 363 361 361 361 361 362 362 360 362 362 362 361 362 361 361 360 359 359 359
286 284 283 283 287 289 289 287 286 283 297 305 306 305 305 298 296 303 307 307 307 305 306 307 308 308 308 307 310 312 315 317 321 322 323 325 326 328 330 333 335 338 342 345 347 349 351 353 353 351 350 348 349 350 351 351 353 353 354 353 356 357 359 361 361 363 363 363 361 362 362 363 363 362 361 362 363 363 362 363 362 362 362 361 360 360
292 286 286 288 293 286 286 285 285 294 300 305 303 294 299 300 303 305 306 303 306 306 305 306 307 308 309 308 309 310 312 312 315 319 321 322 325 326 329 331 333 335 338 343 346 347 350 351 352 352 353 349 351 353 353 352 355 355 355 355 360 361 361 362 362 363 362 362 362 363 363 363 364 364 364 364 365 364 363 363 363 362 362 362 360 359
291 287 290 286 294 290 290 293 296 300 303 304 304 301 302 303 304 305 305 304 304 304 307 305 305 308 308 308 309 309 309 308 310 315 319 321 323 324 327 329 330 332 335 338 342 346 348 349 351 352 353 356 359 358 358 358 357 357 356 363 364 363 362 362 362 361 361 360 361 363 363 364 364 364 365 366 366 364 363 364 364 361 363 361 360 359
295 296 298 294 292 295 297 298 299 298 301 302 303 304 303 304 305 305 305 304 304 306 306 305 304 307 307 308 307 309 307 307 307 310 316 321 321 323 327 328 330 333 335 337 340 343 346 348 349 350 351 353 357 360 363 362 361 359 362 363 365 365 365 364 362 361 360 361 362 362 363 363 364 366 366 366 365 364 364 363 362 361 362 361 359 359
294 297 295 289 292 290 288 296 296 297 299 303 302 304 305 305 305 306 305 305 305 306 306 308 306 307 308 308 306 307 308 307 307 308 312 320 321 322 325 326 328 331 333 335 338 342 343 345 345 346 348 349 352 355 357 360 362 363 363 364 365 366 368 366 364 363 364 364 363 364 363 363 361 362 364 365 364 364 365 364 364 363 361 361 359 358
289 299 293 291 291 290 291 294 297 298 300 304 305 303 303 304 304 304 305 306 306 308 306 307 308 306 308 308 307 307 307 307 307 307 308 316 321 322 324 325 326 328 332 335 338 341 343 344 345 345 346 347 350 352 354 356 358 360 362 364 365 365 366 365 364 363 363 363 364 364 365 364 363 364 363 364 364 363 363 364 364 363 362 360 360 359
293 298 287 292 289 293 296 297 297 298 301 302 304 306 306 303 303 304 305 305 306 306 306 307 308 307 307 309 309 308 307 308 308 309 309 314 320 322 323 324 326 328 330 332 336 342 342 344 345 345 345 346 349 351 353 354 356 359 363 364 366 368 366 364 365 366 364 363 362 361 362 363 364 363 363 365 367 345 336 350 364 364 364 365 366 364
294 288 293 292 288 288 290 292 296 290 291 296 300 302 303 304 303 304 305 304 304 305 306 305 306 308 308 310 310 308 307 308 309 310 310 311 317 322 323 324 325 327 329 331 335 340 343 344 346 346 345 346 349 350 351 352 354 357 358 363 367 371 367 363 364 367 367 366 365 364 362 362 362 362 361 362 353 341 329 308 299 310 347 367 339 333
290 291 292 288 288 287 294 296 297 297 296 297 299 302 303 304 303 302 302 303 305 306 307 306 305 306 307 310 312 310 308 308 309 309 309 310 315 322 323 323 324 326 327 329 332 335 339 342 344 345 345 346 348 349 349 350 351 354 356 359 362 367 369 369 367 365 365 364 365 362 365 364 363 365 364 359 353 350 344 340 329 300 295 304 309 307
Wind_Speed
10 12 14 17 17 16 15 15 13 6 6 2 6 7 9 11 10 3 4 4 2 3 9 10 12 12 12 11 11 14 14 14 13 14 14 15 15 16 16 17 18 19 20 17 18 19 20 19 17 16 15 15 16 15 16 16 15 15 14 15 16 13 14 13 12 12 10 9 8 7 8 8 7 6 6 6 6 6 5 5 5 4 4 4 4 4
10 11 15 16 11 10 11 11 8 8 11 4 3 8 9 10 12 8 4 1 4 8 6 8 11 13 13 11 11 11 13 15 16 16 16 16 17 16 19 19 19 16 11 15 15 18 18 17 18 17 15 16 18 16 17 17 17 16 16 15 14 15 14 15 12 11 11 10 9 9 8 7 6 6 6 6 5 6 5 5 5 5 5 4 4 4
11 15 14 12 6 5 6 10 12 13 15 13 7 4 5 8 6 8 6 6 2 4 8 5 10 12 12 11 10 13 16 16 18 19 19 19 19 17 17 18 16 15 16 17 18 20 19 20 20 17 16 16 18 18 18 17 17 16 16 14 13 13 13 14 14 11 10 10 9 8 7 8 6 5 5 5 5 5 6 5 6 5 5 5 5 5
9 13 13 9 9 12 10 11 12 14 13 13 11 8 9 1 5 9 5 3 8 8 5 3 10 10 7 5 11 15 16 15 16 18 17 18 21 21 21 20 19 20 18 20 21 22 21 21 20 18 17 17 17 17 17 17 18 15 14 14 14 14 15 14 13 12 11 10 8 7 5 6 6 4 5 5 4 5 6 7 6 6 5 6 6 6
10 4 10 10 11 13 13 13 14 12 13 14 16 12 9 7 6 4 1 5 2 8 9 7 10 11 8 8 7 11 15 12 11 13 12 11 12 10 10 12 15 19 20 20 21 21 21 22 22 21 20 17 17 18 18 18 17 13 17 16 16 14 15 12 14 15 12 10 8 6 4 4 5 3 5 5 6 7 7 7 7 6 6 6 6 6
12 4 10 17 16 14 15 13 16 13 12 12 18 17 12 8 7 7 7 8 4 6 7 9 9 12 9 11 13 7 10 13 12 13 16 15 14 13 15 18 17 17 17 19 22 23 23 22 20 21 21 20 19 19 19 18 17 16 15 16 15 13 13 13 14 15 11 12 10 10 10 9 8 7 8 9 9 8 8 9 7 7 7 7 6 6
11 8 11 13 17 18 16 14 15 15 12 11 13 17 17 12 9 9 9 5 6 9 3 2 11 11 4 9 10 9 12 16 13 15 17 16 14 16 16 15 17 19 18 17 17 17 19 20 20 21 22 22 20 19 18 17 17 17 15 16 16 14 12 12 13 14 12 13 12 12 12 11 10 9 8 7 7 7 6 5 6 5 6 7 7 7
7 10 10 10 11 15 15 15 14 17 12 13 4 13 14 15 13 12 10 9 8 6 10 8 5 9 9 9 6 8 13 15 15 17 17 15 16 18 18 18 18 18 18 18 20 21 21 22 23 23 22 21 20 18 17 17 16 18 16 16 16 13 13 12 13 15 16 13 13 14 12 10 10 10 8 8 7 5 4 6 7 5 5 6 7 7
13 11 14 13 11 11 15 15 14 19 14 5 6 9 13 14 13 12 10 9 7 6 9 8 5 6 10 5 4 6 10 11 14 17 16 16 17 19 19 19 19 20 20 20 19 21 21 22 23 21 22 21 20 18 18 17 16 16 16 15 15 15 14 14 15 15 17 13 13 13 11 10 9 9 7 6 7 6 6 7 6 6 6 6 7 7
5 10 12 14 11 12 11 11 11 18 14 10 6 9 9 10 11 12 10 11 10 9 14 11 8 10 11 8 6 5 9 12 14 16 15 16 18 18 18 19 18 17 16 18 19 19 21 22 22 22 20 20 20 18 17 17 16 16 15 16 17 16 14 14 16 15 16 16 14 13 12 13 10 9 7 7 7 7 7 8 8 7 7 7 6 7
5 2 13 12 15 12 8 11 10 16 16 6 8 7 9 11 11 8 9 8 7 15 15 15 10 11 12 13 11 9 8 9 9 10 11 13 16 16 16 16 15 16 17 16 18 19 19 19 19 19 21 21 20 17 18 18 17 16 16 17 18 18 14 16 17 17 17 16 14 13 14 15 13 12 10 8 8 8 8 8 8 8 7 6 7 6
12 10 8 5 11 8 11 8 10 14 15 10 10 9 6 3 3 8 6 6 11 16 10 14 13 13 14 12 10 9 5 8 10 11 13 15 17 17 16 16 18 19 18 18 17 18 19 19 20 19 20 21 21 19 18 18 17 17 16 16 18 17 17 16 16 17 16 16 16 15 15 15 14 13 11 12 11 11 11 10 8 7 6 7 7 7
12 14 8 4 8 14 13 12 9 12 14 13 11 11 11 6 7 9 8 12 15 14 5 12 11 11 21 15 4 6 10 11 10 9 11 14 16 17 17 18 17 17 17 17 17 17 18 20 20 22 21 20 20 19 20 20 18 17 17 18 19 18 18 16 16 17 17 17 17 16 15 14 12 13 12 12 11 11 10 9 9 8 8 7 7 7
12 11 10 10 5 12 13 14 10 11 13 15 14 13 13 11 11 10 11 7 8 10 2 1 9 16 8 9 14 18 15 13 10 10 10 12 14 15 16 16 16 16 17 18 18 18 18 19 19 20 21 21 20 21 20 20 19 17 16 19 19 19 18 16 16 17 18 19 18 16 14 14 12 13 13 11 11 11 10 9 10 10 10 9 9 9
11 9 14 15 10 2 13 15 12 9 11 14 13 14 13 11 10 12 9 13 10 6 7 12 4 8 7 6 7 14 17 18 14 12 12 13 13 13 14 14 17 17 17 17 18 19 20 20 21 20 20 19 19 22 21 19 19 17 17 18 19 18 18 18 18 16 18 17 16 15 14 13 12 12 12 11 11 10 10 10 10 10 9 9 9 9
10 7 5 5 2 2 6 12 13 13 10 12 13 11 14 16 8 10 3 8 7 7 8 11 12 2 5 4 5 4 8 13 14 16 16 15 12 10 9 12 15 17 18 18 19 20 20 19 20 18 18 19 19 22 21 21 19 18 17 18 20 20 19 18 18 17 17 16 14 15 16 15 14 12 11 10 9 9 10 10 11 10 10 9 8 8
1 8 4 6 2 2 2 7 4 11 12 11 12 16 15 7 9 10 4 1 2 7 14 4 8 13 5 12 10 7 8 10 11 13 15 16 13 12 12 13 16 17 18 18 19 20 21 19 20 20 21 20 20 20 22 21 19 20 18 18 19 19 18 19 19 18 17 16 15 17 16 15 14 14 14 13 14 14 12 11 10 10 10 9 8 7
4 6 8 3 6 6 5 5 6 9 8 7 14 14 8 8 11 10 11 5 10 12 5 7 15 12 9 11 12 14 8 10 11 12 14 16 12 14 14 14 15 17 19 21 22 21 22 22 23 22 21 23 23 23 22 20 20 19 18 20 20 19 20 19 19 18 17 17 16 15 16 16 16 15 16 14 14 13 11 10 9 9 8 10 9 8
3 6 6 2 6 4 8 3 7 10 11 12 10 10 11 11 14 13 7 14 12 14 9 6 8 14 12 11 4 15 19 15 10 10 12 13 12 15 15 16 16 17 16 16 18 16 17 19 19 20 23 25 23 21 21 20 20 19 19 20 22 23 22 20 18 17 15 16 13 13 16 17 16 15 14 13 12 12 12 13 12 12 11 10 9 8
3 5 2 1 1 4 5 4 13 11 11 14 6 12 13 6 12 12 14 6 4 11 6 9 9 13 10 11 10 8 12 16 17 11 12 13 14 14 14 15 15 15 16 17 18 18 20 22 23 24 24 24 24 23 22 23 21 23 22 21 20 20 19 19 19 17 17 17 15 14 15 15 15 15 14 13 13 13 13 13 13 13 12 11 10 10
2 1 6 2 3 4 7 8 11 8 13 13 10 11 10 11 2 9 8 13 11 9 10 7 8 10 9 5 10 14 12 11 14 12 10 11 12 15 15 14 14 16 16 17 18 18 21 22 24 24 23 22 21 19 19 21 23 22 20 21 22 22 22 21 20 18 16 15 16 16 17 16 15 16 14 14 14 14 13 13 12 12 12 10 10 10
3 2 6 6 6 7 3 6 5 5 7 4 4 9 13 14 9 14 15 11 13 10 6 8 12 5 2 5 11 14 13 12 12 13 12 13 13 13 13 14 14 14 16 18 18 19 20 21 22 21 19 17 18 20 23 22 21 22 23 22 22 21 20 21 20 18 17 16 15 17 17 17 16 16 14 15 14 15 13 13 12 12 10 11 11 10
4 4 5 6 6 7 8 6 7 7 6 4 5 4 7 6 11 11 11 10 11 14 10 10 9 11 4 1 6 9 11 14 13 13 13 11 11 12 13 15 15 16 18 19 19 19 19 19 19 19 21 22 23 23 24 22 22 23 23 22 21 21 22 22 20 18 16 16 16 17 16 16 15 15 16 17 15 16 15 14 13 12 12 12 11 11
7 3 4 8 8 11 14 7 2 1 7 5 4 4 4 1 5 5 5 4 9 11 10 11 13 9 6 6 7 7 9 9 8 7 8 10 10 11 11 11 12 12 13 14 15 15 15 14 16 15 17 18 17 17 20 20 20 20 20 21 21 23 23 21 19 18 17 17 17 17 16 16 15 17 17 17 15 16 16 14 13 12 13 13 12 11
5 3 3 3 5 6 8 4 3 5 4 3 1 2 2 4 7 7 7 4 5 11 14 10 15 6 9 4 5 11 6 8 11 9 7 10 7 6 7 6 8 9 9 12 13 14 13 15 18 17 19 18 17 19 19 19 20 20 21 20 21 21 22 20 18 18 18 19 19 18 17 17 16 17 17 17 15 17 17 15 13 12 14 13 13 13
5 5 2 5 9 12 13 12 10 6 1 3 2 2 1 6 8 4 7 6 9 7 12 13 10 6 5 3 7 13 14 7 10 7 4 7 8 8 6 5 5 6 8 12 13 13 15 16 16 14 15 14 18 20 18 17 19 20 20 21 20 20 20 19 18 18 18 18 19 17 18 17 17 18 19 18 17 17 16 15 14 13 13 14 14 13
4 5 6 7 7 7 5 4 2 4 4 2 3 7 7 2 2 3 3 3 10 1 10 10 7 9 8 6 8 12 12 13 11 6 7 6 6 7 7 7 7 8 9 11 12 13 12 12 14 16 16 17 21 20 18 19 20 19 18 20 20 19 19 18 18 17 18 19 19 17 17 18 18 17 17 17 16 15 15 15 15 15 14 14 14 14
5 6 8 9 12 13 10 6 5 5 8 9 9 9 6 6 2 3 5 5 8 5 11 4 5 12 9 6 8 11 11 8 7 6 4 5 6 7 6 6 8 8 10 9 10 11 13 15 15 15 17 19 19 19 18 19 19 20 19 20 19 19 18 16 17 17 18 18 18 16 17 17 17 17 16 15 15 14 15 15 14 14 13 13 14 15
4 7 8 9 14 13 12 10 6 7 8 8 10 12 12 8 5 7 9 10 9 7 5 7 5 9 3 9 9 10 7 9 11 6 4 7 8 7 5 6 8 9 10 13 13 14 15 16 15 16 17 18 19 19 20 18 18 16 16 17 17 18 19 18 17 18 18 17 17 16 16 16 15 14 15 15 14 15 15 14 14 14 13 13 13 12
5 7 9 9 12 13 12 8 8 11 10 10 10 11 11 11 10 9 11 11 13 11 8 15 15 11 4 7 8 9 10 10 11 9 6 5 6 7 8 8 11 12 12 11 14 17 16 17 17 16 17 16 20 20 20 18 17 18 19 19 20 19 18 16 17 18 18 18 16 15 15 15 14 14 14 14 14 14 14 13 13 13 14 14 14 13
3 4 4 5 7 11 11 10 11 11 11 10 10 11 11 10 10 9 10 11 11 12 14 16 16 13 4 2 8 11 9 8 7 7 8 7 7 7 8 11 13 14 16 14 13 16 17 18 17 16 16 18 18 19 20 17 18 19 21 19 19 18 18 18 16 16 17 17 16 15 15 14 14 13 14 14 13 13 13 13 12 12 13 13 13 14
3 7 6 6 6 9 6 9 8 7 8 12 14 13 11 9 8 3 3 2 4 4 5 7 10 7 2 9 9 9 6 3 4 7 7 7 9 9 11 13 13 14 16 17 16 15 16 18 16 17 20 21 22 20 18 16 17 18 20 19 20 19 18 18 18 18 16 16 14 15 15 14 14 14 14 13 14 14 14 13 13 13 13 13 14 13
7 6 6 5 8 10 5 1 3 6 9 11 15 13 10 8 4 3 3 3 4 4 7 8 7 7 9 9 10 5 3 2 2 3 6 8 9 11 12 14 14 15 16 16 16 15 16 18 19 21 22 22 21 21 22 20 20 19 19 19 18 17 18 18 19 17 16 15 15 15 15 14 15 15 14 15 15 14 13 14 14 14 14 15 14 12
9 8 6 4 5 5 1 3 3 5 10 9 5 4 12 9 8 6 4 5 7 6 5 8 10 12 12 11 8 5 2 1 2 3 4 6 9 12 13 13 14 15 15 15 16 17 16 15 15 18 20 20 23 24 21 21 21 17 16 15 14 18 16 16 16 15 15 15 15 15 15 15 15 15 15 14 14 14 14 14 15 14 13 12 12 13
10 8 7 5 6 5 5 5 6 10 9 7 5 5 3 5 3 7 8 11 11 13 14 13 13 14 14 12 12 11 8 4 2 4 6 8 9 10 14 14 13 12 13 13 13 15 14 15 14 15 15 16 18 15 15 15 14 14 15 15 17 15 13 14 15 14 15 15 15 14 15 15 15 15 15 15 15 14 15 15 14 14 13 13 13 13
12 10 7 7 6 8 6 6 6 6 4 3 3 8 6 2 5 7 7 10 15 13 12 12 14 15 15 15 14 11 9 10 8 4 8 9 10 11 13 13 13 12 12 12 12 12 11 16 16 18 18 17 17 17 17 17 16 17 16 16 16 15 14 15 14 15 14 15 16 17 16 16 16 15 15 15 14 15 15 14 14 14 13 12 13 12
14 9 8 8 7 7 6 7 8 6 3 5 5 3 5 2 4 3 7 5 12 12 13 12 15 16 18 16 15 13 8 7 6 5 9 11 12 12 12 13 13 13 12 11 11 10 8 9 10 12 11 13 16 17 18 17 17 17 16 17 16 15 15 15 15 16 16 16 16 16 16 16 16 15 15 15 15 15 15 14 14 13 12 12 13 12
14 13 7 7 6 10 8 5 3 4 6 5 5 5 3 5 6 7 1 5 11 14 13 14 15 16 18 18 17 15 9 6 5 4 11 13 13 12 11 11 11 11 9 8 7 8 10 11 12 13 15 15 15 15 14 16 16 15 16 16 15 15 16 17 17 16 16 16 16 16 16 16 16 15 15 15 16 16 14 14 13 13 12 13 14 14
14 11 7 7 6 5 10 8 4 5 3 4 3 8 6 5 7 6 5 4 7 12 15 15 16 17 15 16 17 11 5 5 3 7 11 15 12 11 12 11 11 11 10 6 4 11 12 12 14 16 15 16 14 13 13 15 16 16 15 15 16 17 18 18 17 17 17 17 16 16 16 16 16 16 16 15 15 15 15 15 14 13 12 13 13 13
15 10 6 7 9 9 9 8 4 3 0 2 8 10 9 7 5 6 9 5 8 11 13 16 15 16 17 18 14 10 11 4 7 8 13 14 10 12 12 13 13 13 12 7 4 4 11 12 14 16 17 18 16 15 15 16 16 17 16 16 17 18 18 18 17 17 16 16 16 16 15 15 15 15 16 15 15 14 14 13 13 13 12 12 12 12
11 7 8 10 9 10 12 8 5 2 1 6 11 14 11 6 4 8 6 4 5 8 11 14 12 13 12 14 13 10 9 8 9 12 13 10 13 14 13 12 12 12 11 11 8 3 8 12 15 16 18 15 14 16 17 16 16 15 15 15 17 18 19 17 15 15 14 14 15 15 16 14 15 16 16 15 15 14 13 12 12 12 12 13 12 12
9 6 5 6 9 10 9 10 4 1 4 9 11 9 9 3 7 4 5 2 5 8 11 11 12 12 13 13 11 9 10 12 12 11 10 13 12 12 14 14 14 14 12 11 12 8 2 6 8 13 14 13 16 17 16 15 15 14 14 15 18 19 16 13 13 13 13 13 14 15 15 15 14 15 14 14 12 12 12 11 12 12 12 12 11 12
8 7 5 7 6 7 8 7 2 3 4 12 14 3 10 2 4 4 2 5 6 8 9 11 10 11 13 13 15 13 13 13 12 12 13 11 13 14 14 15 15 15 15 14 12 11 6 5 6 7 11 14 17 16 16 18 16 15 15 17 16 14 12 12 13 12 13 13 14 13 14 14 15 14 12 12 13 13 13 12 12 12 11 12 12 12
4 1 1 4 4 6 8 6 1 4 6 10 7 4 4 5 6 7 4 3 6 7 7 9 10 12 12 11 13 14 13 12 13 16 15 15 15 15 15 16 16 16 15 14 12 10 8 7 6 7 7 9 11 12 13 16 14 14 15 15 10 10 10 11 12 12 13 12 13 13 13 14 14 14 13 13 13 13 13 12 12 12 11 13 12 11
5 2 5 3 3 3 1 3 5 5 5 5 5 5 5 4 5 7 6 5 6 6 6 6 10 13 12 13 12 12 12 14 14 13 13 13 13 14 15 14 13 13 14 15 15 12 10 8 9 8 8 6 7 7 9 10 12 13 13 8 9 10 12 12 12 12 12 13 13 13 13 12 13 14 13 13 13 12 12 13 12 12 13 14 14 13
3 6 6 5 3 8 5 3 4 6 6 3 4 4 4 3 4 6 8 7 7 5 6 7 10 12 13 13 12 12 11 13 14 15 15 16 15 15 15 16 17 16 16 16 17 16 11 11 11 12 11 10 8 7 6 7 9 10 7 7 8 10 10 11 12 12 13 12 12 13 13 13 13 13 13 13 12 13 12 13 12 12 12 14 14 14
4 6 5 3 7 4 4 4 8 10 10 4 4 3 3 2 3 5 6 6 6 7 8 7 9 12 12 13 13 13 14 14 14 13 13 15 18 17 16 15 15 14 15 16 16 15 12 12 12 13 12 12 9 8 8 8 7 7 7 7 7 8 8 10 10 10 10 10 11 11 12 13 12 12 12 13 12 12 12 11 11 11 11 12 12 14
2 6 3 6 7 3 4 7 7 12 6 5 3 1 2 3 6 6 6 6 5 6 8 8 9 12 12 11 13 14 14 12 14 14 13 14 15 16 14 14 14 14 14 14 15 16 14 13 13 12 12 10 9 9 8 8 7 7 8 8 7 7 8 8 9 9 10 11 9 8 9 10 11 11 10 11 12 12 12 11 11 11 12 12 12 14
9 8 4 8 4 7 5 2 10 12 2 5 3 3 3 6 8 9 6 7 6 6 8 10 8 10 12 12 13 14 16 15 12 13 13 12 14 15 15 15 14 13 13 15 14 14 13 12 12 12 12 10 9 8 8 8 6 6 6 7 8 9 9 8 8 8 8 7 7 7 7 7 8 9 9 8 6 3 3 2 8 10 11 11 11 12
6 6 8 5 3 3 5 8 13 8 5 6 9 9 10 10 10 11 9 7 7 8 8 10 11 10 13 12 12 13 15 14 14 13 12 12 13 14 15 16 14 14 13 13 12 13 13 13 12 11 11 9 8 8 8 8 7 6 5 4 3 5 8 10 8 7 6 6 7 7 7 8 8 9 9 7 6 5 4 6 7 7 2 5 4 2
7 10 8 6 5 6 10 10 8 8 11 14 13 14 12 11 12 13 12 8 7 8 7 8 10 11 11 12 10 11 14 14 16 14 12 11 12 13 12 15 14 13 13 13 13 15 13 12 12 11 11 9 8 8 8 8 7 7 6 6 4 3 5 5 5 5 5 5 5 6 6 6 7 8 5 5 6 7 7 5 6 14 12 8 6 5
Wind_Direction
159 184 194 202 208 205 205 209 218 233 24 342 218 225 224 228 236 209 227 248 232 245 225 227 237 243 237 220 197 192 191 200 193 183 184 184 184 187 190 192 194 194 195 187 187 188 189 188 187 188 188 189 189 188 187 186 188 188 189 192 197 193 196 196 196 198 197 196 197 203 205 207 205 207 208 214 219 225 230 232 229 222 226 223 224 229
181 207 214 214 209 195 189 197 213 234 244 269 248 221 228 224 239 228 230 207 217 241 238 234 245 246 243 228 208 190 189 199 199 192 190 187 188 190 192 194 196 193 185 183 186 191 191 191 189 187 189 189 189 191 187 188 190 191 193 196 195 198 196 200 194 192 193 195 197 192 197 202 203 198 204 211 215 223 227 223 226 232 233 225 223 225
199 215 218 207 157 152 185 198 208 218 227 235 245 233 245 231 261 285 263 260 275 225 252 226 244 251 247 232 203 193 195 206 203 197 193 188 190 193 195 195 188 181 186 187 190 188 191 192 190 189 191 192 193 192 192 190 191 192 193 196 193 194 194 201 198 191 192 193 193 190 187 194 199 205 208 214 210 212 226 224 222 226 227 225 228 223
201 229 221 156 161 187 191 197 202 216 227 228 227 230 221 150 195 229 209 180 230 232 264 215 252 259 263 237 212 201 203 209 205 207 202 192 189 192 192 189 187 186 183 187 188 189 192 193 194 194 193 192 192 194 198 190 191 192 193 196 194 195 199 201 198 196 194 188 184 182 182 184 200 198 193 200 207 215 226 230 221 218 221 222 229 221
198 66 175 141 175 192 196 195 200 207 220 221 230 231 229 220 226 291 44 336 303 246 251 272 274 267 246 239 213 212 211 213 206 208 213 212 214 205 194 193 193 190 187 187 188 190 191 193 196 196 197 192 193 194 198 193 191 191 193 193 191 194 196 193 195 200 195 193 184 179 175 175 189 200 193 199 212 211 214 223 219 218 213 219 226 222
230 204 154 158 191 197 202 202 206 204 222 223 225 228 231 233 247 256 283 326 282 241 194 209 259 255 235 238 242 194 194 215 207 202 209 207 197 190 196 199 196 198 195 190 189 189 190 192 192 197 197 196 195 197 199 195 191 192 193 192 191 194 194 195 192 194 187 198 191 190 199 195 193 199 195 202 204 202 206 216 218 210 211 217 221 221
228 160 167 183 184 192 204 218 206 201 222 224 226 211 225 236 240 251 270 272 248 241 93 228 237 255 175 227 228 186 193 211 203 211 214 205 198 199 202 197 197 196 193 196 196 192 190 190 192 193 195 196 195 195 192 191 191 191 191 190 189 192 194 193 190 185 192 197 197 196 197 194 192 195 205 204 205 207 204 204 205 204 205 210 220 224
189 188 173 193 199 195 197 214 204 196 213 233 187 182 207 224 229 240 250 252 266 314 295 266 248 263 262 234 216 197 204 208 204 213 216 204 199 205 205 203 201 197 196 191 193 192 192 190 192 194 194 194 196 191 189 189 190 190 188 185 188 192 193 191 189 185 197 193 196 201 199 201 202 201 200 193 198 199 197 201 214 214 212 207 216 221
181 198 186 189 202 206 212 211 193 192 211 233 174 165 192 213 226 233 243 253 256 296 270 240 193 253 249 231 90 190 212 215 212 216 214 206 207 207 204 204 201 199 196 193 192 193 192 193 194 193 194 195 192 192 191 189 188 187 186 185 188 192 190 194 189 184 194 191 193 196 194 199 204 205 203 186 190 196 194 206 207 211 213 210 212 216
213 222 187 199 202 220 215 214 192 184 211 215 146 168 203 204 216 224 234 242 252 245 248 241 206 251 259 238 208 182 226 213 212 218 215 207 210 208 207 207 204 198 196 199 196 194 194 195 195 195 192 190 193 192 190 188 187 186 185 187 188 193 194 194 188 186 191 192 193 197 196 199 199 197 197 190 187 191 189 203 205 205 211 215 213 213
274 240 193 195 214 219 189 214 196 192 209 108 163 174 182 198 211 211 228 235 253 245 240 241 216 225 267 241 218 193 214 210 206 211 213 214 217 215 212 207 201 198 197 197 196 198 197 196 196 192 191 192 192 192 188 186 187 187 187 187 189 193 190 196 192 190 193 193 194 197 196 199 199 195 190 186 191 190 192 204 206 205 209 210 213 213
239 242 203 225 203 186 201 202 201 203 201 179 190 192 158 169 172 199 201 186 235 249 232 225 223 207 244 241 225 206 213 211 204 206 203 208 212 211 208 204 201 198 194 192 193 195 192 192 194 192 195 193 192 190 188 187 187 187 187 187 189 190 189 194 191 190 193 195 199 200 195 198 200 195 193 194 196 193 196 202 205 203 204 207 210 212
229 226 206 235 202 194 180 211 190 201 200 203 198 195 200 187 179 206 188 210 220 243 230 207 199 230 234 247 262 189 214 233 216 219 209 206 212 211 209 205 203 201 195 189 191 190 191 192 190 191 191 188 188 190 188 188 188 187 186 185 186 190 189 189 189 191 193 196 200 202 197 197 197 196 196 197 198 192 194 197 201 196 206 205 207 210
232 219 198 218 210 201 195 202 185 198 198 201 203 192 196 201 197 215 207 228 244 231 135 147 189 244 273 277 227 246 244 239 230 220 224 213 210 207 206 203 201 198 194 193 191 191 194 192 190 190 190 187 186 188 188 188 189 186 186 184 188 190 187 187 190 191 193 199 200 198 195 195 193 196 197 200 202 198 196 193 199 203 206 206 210 212
220 200 214 198 213 49 214 217 206 205 177 202 203 202 207 207 202 212 208 210 224 268 204 162 177 233 183 227 164 212 230 241 231 220 223 224 218 208 205 197 197 197 197 192 191 193 195 193 189 190 190 189 188 189 189 188 188 184 184 183 187 188 186 187 189 191 195 197 195 195 196 195 195 197 199 202 204 201 196 198 201 202 205 209 211 211
240 277 41 12 360 340 215 224 216 192 199 202 198 207 214 214 194 231 198 224 244 243 233 185 217 89 224 358 307 265 242 231 223 216 215 219 214 203 191 195 198 199 197 192 193 195 195 190 188 188 188 189 190 189 190 188 185 182 182 182 185 188 185 187 189 191 193 195 194 194 194 196 195 196 199 200 198 200 197 197 199 200 202 208 208 207
117 235 67 338 234 174 75 1 295 197 218 183 190 207 212 191 204 227 248 214 351 239 248 169 235 247 314 283 254 229 218 232 229 225 220 224 210 185 196 200 200 199 198 196 197 197 193 188 186 190 191 190 189 190 191 187 183 182 182 182 186 188 186 188 190 191 192 193 191 196 194 195 195 196 199 202 203 207 203 201 202 204 206 204 206 207
306 304 330 319 194 128 357 319 265 259 246 133 208 208 152 186 223 221 234 181 222 234 219 171 228 242 204 258 207 220 215 227 219 218 220 226 199 189 204 202 200 198 197 197 197 194 188 186 188 191 193 192 192 190 188 184 180 180 182 183 185 186 188 189 189 192 192 190 190 190 194 196 198 200 203 205 204 201 199 196 199 205 200 205 206 206
348 287 242 179 286 300 332 287 244 235 240 228 228 152 178 185 204 206 233 228 218 228 241 207 224 245 223 224 146 210 220 227 218 217 224 218 198 205 207 206 202 198 198 197 197 188 185 190 189 190 193 194 192 188 189 182 181 183 185 186 188 190 190 188 190 191 192 191 190 192 193 195 197 200 202 203 200 194 198 202 199 204 207 204 199 196
279 261 233 150 279 334 292 205 222 202 211 236 197 183 206 225 208 196 208 249 245 246 229 227 201 245 217 238 235 230 211 223 227 210 221 221 198 205 208 207 198 194 197 198 197 194 191 190 190 191 193 191 189 186 186 184 187 190 187 184 188 190 188 187 190 189 191 192 192 191 191 194 195 197 198 198 194 195 200 202 203 202 204 201 200 202
284 259 271 130 306 261 212 191 216 225 208 196 211 221 188 216 50 224 204 213 211 230 234 231 232 238 235 189 234 237 224 221 224 217 209 212 204 208 206 200 195 193 198 200 197 196 193 193 194 194 191 192 190 184 182 185 189 190 188 189 187 187 187 188 189 189 190 189 192 190 189 190 192 196 197 199 198 201 204 203 203 202 206 198 202 200
290 248 265 310 284 224 203 69 90 48 23 343 283 230 208 202 192 202 222 209 225 227 225 214 242 261 221 167 215 226 229 222 218 221 217 218 212 205 208 204 193 192 198 197 197 196 194 194 194 193 189 186 185 185 185 189 187 187 189 188 186 188 188 188 188 190 188 189 191 192 191 193 193 195 197 200 201 203 202 202 200 200 197 201 201 200
331 306 285 268 257 264 285 294 309 287 266 271 250 273 350 289 224 207 226 206 213 227 240 243 274 251 230 231 225 246 233 221 216 213 221 226 223 214 207 204 198 195 196 198 198 197 195 191 187 184 180 181 185 186 186 186 187 189 189 186 187 188 191 190 190 187 184 186 189 192 192 192 193 192 195 198 201 205 205 204 202 197 200 207 209 203
292 255 254 259 276 268 264 279 94 122 178 176 147 26 343 314 360 318 299 321 223 206 207 224 238 251 217 220 268 241 259 292 305 299 267 239 219 217 214 204 200 197 199 200 201 197 194 183 173 175 176 178 181 182 185 189 188 187 186 187 186 189 188 189 187 185 183 185 190 191 189 191 192 193 195 199 203 206 207 205 202 198 202 206 209 206
309 178 255 279 228 215 222 139 130 71 92 74 56 8 0 338 324 300 276 273 264 220 216 216 240 225 237 157 213 269 250 260 270 259 237 260 281 280 269 237 214 200 191 193 193 187 178 174 174 179 180 181 181 183 183 184 184 184 186 186 188 188 186 185 185 185 185 188 191 191 192 193 192 193 196 201 203 205 204 204 202 199 203 205 210 211
283 294 289 234 208 192 193 203 200 175 22 340 304 258 330 342 355 334 220 203 241 213 217 227 238 238 257 153 212 235 261 261 254 246 225 231 241 254 268 261 231 213 197 194 188 174 182 185 185 185 183 182 184 187 182 180 182 184 184 187 186 184 183 184 184 185 184 186 190 192 192 192 193 196 197 199 202 202 202 201 202 200 201 204 208 210
279 269 244 260 286 281 26 25 329 269 316 289 294 300 306 324 296 253 319 289 234 234 225 231 238 256 237 201 219 224 241 251 258 226 216 219 218 221 228 229 214 204 207 204 188 187 183 181 181 183 183 184 186 187 182 183 184 184 182 182 184 185 183 181 180 181 182 185 189 189 190 190 193 195 197 197 200 199 199 201 202 202 203 203 208 209
263 269 254 262 264 266 293 303 326 303 281 286 295 293 295 291 269 244 225 218 22 338 251 172 156 246 243 213 213 219 228 235 242 270 249 206 208 216 224 227 229 210 203 190 188 185 187 191 188 185 183 185 186 185 181 184 184 184 180 179 182 182 180 179 178 178 181 183 188 187 187 190 192 195 195 195 194 196 198 199 200 202 204 203 206 211
280 260 263 259 261 273 274 280 278 272 258 266 271 275 282 280 253 248 250 260 272 251 270 330 286 256 265 254 261 264 265 267 265 270 321 338 325 302 290 279 263 237 213 194 188 187 192 191 190 186 184 184 181 179 179 179 180 179 175 177 179 181 181 175 175 177 180 183 187 189 185 186 190 193 192 191 189 193 195 197 198 199 200 201 206 210
278 266 272 268 277 273 268 259 252 263 271 262 256 260 260 267 265 253 260 256 244 243 259 272 286 286 314 315 336 321 329 321 315 337 320 310 302 308 296 275 260 255 244 217 194 197 196 195 189 184 180 175 182 179 179 178 177 175 174 178 181 182 181 174 178 177 182 185 188 185 180 182 186 188 189 188 189 190 193 196 197 198 200 203 206 209
255 270 358 337 278 266 263 252 244 254 260 267 263 260 258 260 266 261 262 265 258 249 248 256 263 282 269 351 318 306 309 316 311 307 326 330 323 310 294 271 257 247 242 231 211 198 198 195 189 180 175 181 182 177 180 178 176 179 182 181 179 179 179 176 171 177 183 188 187 182 181 183 187 185 189 190 190 189 193 196 197 201 204 206 208 210
259 268 312 306 295 277 248 242 234 231 258 271 269 257 247 238 233 232 254 342 281 261 263 247 259 256 33 334 314 285 275 307 325 330 326 324 316 307 289 279 271 256 245 242 230 209 200 195 182 175 181 185 185 181 179 172 173 175 183 181 182 180 178 179 181 184 185 187 178 179 182 186 186 188 191 189 192 192 195 196 200 201 202 204 206 206
254 269 270 272 267 266 247 142 267 272 266 258 244 228 220 199 197 172 205 18 26 297 253 233 248 16 318 330 311 278 240 199 310 317 313 304 299 293 284 278 272 263 250 237 232 220 207 196 184 182 185 184 183 183 184 175 175 179 181 176 178 174 179 182 184 184 184 185 179 181 182 182 186 187 189 191 192 193 193 197 200 202 203 207 208 207
250 250 254 257 264 271 78 262 258 247 232 234 35 146 184 179 178 154 142 17 39 11 329 318 313 323 330 321 315 303 279 297 341 333 323 321 315 305 298 292 285 275 263 250 236 221 206 193 188 184 181 180 182 183 179 176 179 176 173 165 158 170 176 175 178 177 180 182 181 182 182 184 185 188 191 190 190 192 194 197 201 202 203 206 205 207
237 233 242 223 243 264 295 279 225 226 229 78 71 59 195 137 105 130 128 60 33 16 1 346 340 331 321 313 300 288 287 284 297 349 334 332 325 313 306 303 301 294 270 251 231 216 192 178 180 176 173 179 178 168 163 167 169 160 162 158 168 174 168 169 172 174 179 182 182 181 184 185 188 190 190 189 190 192 196 198 200 201 203 205 207 207
229 229 233 231 241 273 274 217 211 215 56 228 57 40 27 191 339 157 134 65 37 23 359 344 333 327 321 315 305 296 272 269 269 295 358 341 339 325 315 309 309 308 286 250 220 203 188 186 182 181 179 177 170 174 170 171 172 171 169 167 169 171 172 172 176 178 180 183 185 187 186 186 188 190 190 190 191 194 197 199 199 200 200 206 211 213
222 223 222 231 223 237 234 216 225 358 304 191 211 42 11 15 330 257 189 91 40 18 2 340 335 335 332 322 313 302 289 268 253 246 5 347 339 331 320 314 316 311 296 266 215 194 169 167 159 168 150 161 171 169 170 168 169 166 162 166 170 167 170 174 178 182 185 189 188 188 188 189 189 189 191 190 192 196 198 198 200 202 201 205 211 212
201 215 191 214 232 232 261 251 225 230 216 174 98 27 324 304 297 286 309 128 30 12 1 349 341 338 334 328 320 314 293 254 258 323 352 343 338 335 334 334 330 329 319 283 201 158 153 154 149 142 159 158 166 164 159 160 161 157 158 167 165 165 170 178 185 186 186 189 189 188 188 188 189 190 190 191 195 196 199 201 203 204 200 204 208 213
197 205 204 195 244 240 236 242 210 192 177 69 1 333 329 306 269 257 244 174 27 3 358 350 340 340 334 327 320 316 248 244 322 353 344 331 331 351 348 351 351 350 347 339 215 166 161 149 152 150 149 153 157 153 147 152 156 156 162 164 167 174 180 185 187 187 187 188 187 187 187 188 190 191 191 193 195 197 200 201 202 203 200 205 209 215
188 192 177 205 230 243 243 233 225 219 242 345 340 333 333 320 266 228 215 190 7 3 352 348 340 344 342 333 330 29 31 15 351 338 321 319 330 10 358 360 5 4 6 5 6 161 141 133 131 148 153 161 160 155 157 156 161 167 168 170 171 178 185 188 189 187 186 186 187 188 188 188 189 191 193 194 196 198 200 199 201 202 201 204 207 211
182 180 190 211 223 236 240 244 273 275 100 356 330 324 329 320 217 207 199 67 336 12 348 342 334 341 335 342 349 21 8 352 327 313 313 322 7 2 358 7 23 22 19 16 21 38 147 152 154 159 165 161 151 156 161 163 165 166 164 165 176 186 191 186 182 179 181 183 186 187 189 190 191 192 196 198 198 198 200 199 201 201 201 204 207 211
180 179 184 210 230 234 232 235 243 302 42 349 327 328 356 279 192 175 70 78 25 19 341 332 337 344 338 341 347 346 337 335 333 304 325 5 359 0 0 11 20 32 33 34 31 30 77 151 154 156 155 153 159 163 162 162 163 163 164 171 186 193 185 175 171 171 173 176 183 187 189 191 192 193 198 200 197 195 199 201 203 203 203 206 207 208
170 161 183 191 214 236 231 231 231 232 48 2 331 334 17 18 44 12 86 61 44 30 341 338 348 340 343 336 341 337 331 333 331 343 6 350 1 3 2 8 15 26 29 30 32 29 41 73 99 139 155 163 165 165 167 168 166 169 172 186 192 181 175 167 171 173 177 180 187 189 190 192 189 189 196 196 196 193 195 195 197 199 198 199 203 208
29 190 177 205 231 220 201 202 131 359 354 359 17 75 46 43 356 10 5 23 39 38 353 331 344 346 339 331 328 336 330 328 334 0 357 360 358 357 3 8 10 15 15 28 40 38 41 65 75 95 129 153 162 164 165 168 166 172 179 188 168 164 161 160 168 168 176 178 184 185 188 191 191 192 197 196 192 193 196 197 196 198 201 207 208 210
27 332 289 249 163 284 329 35 35 12 17 17 44 92 96 42 22 10 24 26 28 23 344 340 337 336 337 331 330 336 329 343 353 350 354 356 355 357 4 1 4 10 13 18 25 32 52 62 78 85 80 80 111 132 152 164 165 168 173 151 144 162 166 166 165 170 177 181 185 187 192 192 194 195 196 195 190 191 197 199 197 203 211 214 217 218
270 314 290 241 313 309 268 269 10 13 353 65 56 67 74 34 7 359 1 5 19 0 354 347 332 331 332 338 338 332 341 342 355 354 355 5 1 0 1 3 6 10 12 16 18 9 27 63 70 76 77 68 70 89 105 137 152 152 133 134 157 164 166 165 168 174 181 184 185 187 189 191 195 196 196 195 195 197 199 199 197 200 202 212 215 217
277 329 338 12 321 313 132 36 15 352 329 172 117 119 88 62 358 343 340 347 346 346 342 341 337 326 330 334 342 332 332 346 355 359 353 6 11 7 3 359 2 3 11 14 14 14 12 24 47 55 64 64 53 70 83 80 84 107 130 148 160 162 157 163 169 176 174 181 182 185 190 194 198 199 199 199 200 201 201 200 199 198 198 205 208 218
273 335 310 350 326 338 340 350 360 336 310 147 156 138 284 354 340 325 309 312 328 336 337 331 334 333 334 336 342 338 333 344 2 1 357 3 6 4 359 358 1 0 0 6 12 19 22 23 32 41 49 52 50 56 63 70 83 113 140 153 154 155 160 162 169 175 185 184 178 180 187 195 191 191 196 197 198 202 203 203 203 203 200 203 203 217
311 314 17 336 312 300 281 17 354 332 184 153 195 246 309 320 325 310 297 309 322 334 327 327 334 328 326 327 338 342 336 338 2 2 3 2 3 4 0 354 0 2 3 5 5 17 30 23 26 33 42 42 42 48 54 55 55 49 78 122 148 154 163 167 172 172 172 175 175 185 185 197 188 196 196 191 176 72 28 252 220 214 213 210 206 204
340 16 341 328 332 17 14 340 345 338 324 297 292 295 305 310 305 301 300 299 315 319 327 324 321 328 315 319 340 345 340 331 344 357 3 7 360 1 3 356 357 360 3 5 4 16 24 30 25 29 32 33 32 40 44 43 38 37 36 38 76 126 132 143 149 148 157 167 176 180 183 191 196 199 199 180 151 134 103 55 62 26 327 213 59 15
0 343 344 359 351 320 326 330 332 312 284 274 285 295 292 294 296 293 293 287 283 291 290 292 304 313 312 315 329 346 341 333 335 348 355 9 360 5 8 358 356 358 3 3 7 11 18 23 24 21 22 16 20 32 33 32 24 24 23 20 21 44 109 127 127 128 138 157 167 168 172 177 187 193 169 157 151 158 155 140 70 47 38 27 24 21